• In France
  • List of Countries
  • For 7 days
  • Water Temperature
  • Satellite Maps
  • Weather Map
  • Weather Widgets
  • user-avatar
    Login

    Hourly Weather Mohnachi

    Today, 21 September, Friday

    Time Temperature Precipitation Wind Pressure Humidity
    00:00 +16°C° 0 mm 1 mps 747 mmHg 84%
    01:00 +16°C° 0 mm 1 mps 747 mmHg 86%
    02:00 +15°C° 0 mm 1 mps 747 mmHg 88%
    03:00 +15°C° 0 mm 1 mps 747 mmHg 89%
    04:00 +15°C° 0 mm 1 mps 747 mmHg 90%
    05:00 +15°C° 0 mm 1 mps 747 mmHg 92%
    06:00 +16°C° 0 mm 1 mps 747 mmHg 89%
    07:00 +18°C° 0 mm 2 mps 748 mmHg 87%
    08:00 +19°C° 0 mm 2 mps 748 mmHg 85%
    09:00 +20°C° 0 mm 2 mps 748 mmHg 79%
    10:00 +23°C° 0 mm 2 mps 748 mmHg 74%
    11:00 +25°C° 0 mm 3 mps 748 mmHg 68%
    12:00 +25°C° 0 mm 3 mps 748 mmHg 66%
    13:00 +26°C° 0 mm 3 mps 747 mmHg 63%
    14:00 +26°C° 0 mm 3 mps 747 mmHg 61%
    15:00 +25°C° 0 mm 3 mps 747 mmHg 64%
    16:00 +24°C° 0 mm 3 mps 746 mmHg 68%
    17:00 +23°C° 0 mm 2 mps 746 mmHg 72%
    18:00 +21°C° 0 mm 2 mps 746 mmHg 75%
    19:00 +20°C° 0 mm 3 mps 746 mmHg 77%
    20:00 +18°C° 0 mm 3 mps 746 mmHg 80%
    21:00 +18°C° 0 mm 3 mps 745 mmHg 79%
    22:00 +18°C° 0 mm 3 mps 745 mmHg 79%
    23:00 +17°C° 0 mm 4 mps 745 mmHg 79%

    Tomorrow, 22 September, Saturday

    Time Temperature Precipitation Wind Pressure Humidity
    00:00 +17°C° 0 mm 4 mps 745 mmHg 79%
    01:00 +17°C° 0 mm 4 mps 745 mmHg 78%
    02:00 +17°C° 0 mm 4 mps 744 mmHg 77%
    03:00 +17°C° 0 mm 4 mps 744 mmHg 78%
    04:00 +15°C° 0 mm 5 mps 743 mmHg 78%
    05:00 +15°C° 0 mm 5 mps 743 mmHg 79%
    06:00 +16°C° 0 mm 5 mps 743 mmHg 76%
    07:00 +16°C° 0 mm 6 mps 742 mmHg 74%
    08:00 +17°C° 0 mm 6 mps 742 mmHg 72%
    09:00 +20°C° 0 mm 6 mps 742 mmHg 66%
    10:00 +21°C° 0 mm 6 mps 742 mmHg 61%
    11:00 +22°C° 0 mm 7 mps 742 mmHg 55%
    12:00 +21°C° 0 mm 6 mps 742 mmHg 59%
    13:00 +20°C° 0 mm 5 mps 741 mmHg 63%
    14:00 +19°C° 0 mm 4 mps 741 mmHg 67%
    15:00 +18°C° 0 mm 4 mps 741 mmHg 69%
    16:00 +15°C° 0 mm 5 mps 741 mmHg 72%
    17:00 +13°C° 0 mm 6 mps 742 mmHg 74%
    18:00 +12°C° 0.6 mm 5 mps 742 mmHg 78%
    19:00 +10°C° 0.6 mm 5 mps 742 mmHg 82%
    20:00 +9°C° 0.6 mm 5 mps 742 mmHg 86%
    21:00 +10°C° 0.9 mm 4 mps 743 mmHg 88%
    22:00 +8°C° 0.9 mm 4 mps 743 mmHg 90%
    23:00 +9°C° 0.9 mm 3 mps 743 mmHg 92%

    Day after tomorrow, 23 September, Sunday

    Time Temperature Precipitation Wind Pressure Humidity
    00:00 +9°C° 0.5 mm 3 mps 743 mmHg 93%
    01:00 +9°C° 0.5 mm 3 mps 742 mmHg 93%
    02:00 +9°C° 0.5 mm 3 mps 742 mmHg 94%
    03:00 +9°C° 0.2 mm 3 mps 742 mmHg 94%
    04:00 +9°C° 0.2 mm 3 mps 742 mmHg 94%
    05:00 +9°C° 0.2 mm 3 mps 742 mmHg 95%
    06:00 +9°C° 0 mm 3 mps 742 mmHg 93%
    07:00 +9°C° 0 mm 3 mps 741 mmHg 92%
    08:00 +9°C° 0 mm 3 mps 741 mmHg 90%
    09:00 +11°C° 0 mm 4 mps 741 mmHg 83%
    10:00 +12°C° 0 mm 4 mps 741 mmHg 76%
    11:00 +13°C° 0 mm 4 mps 741 mmHg 69%
    12:00 +13°C° 0.3 mm 5 mps 741 mmHg 68%
    13:00 +14°C° 0.3 mm 5 mps 741 mmHg 66%
    14:00 +14°C° 0.3 mm 5 mps 741 mmHg 64%
    15:00 +13°C° 0.2 mm 5 mps 741 mmHg 69%
    16:00 +12°C° 0.2 mm 4 mps 741 mmHg 73%
    17:00 +11°C° 0.2 mm 4 mps 741 mmHg 77%
    18:00 +10°C° 0 mm 4 mps 741 mmHg 80%
    19:00 +8°C° 0 mm 4 mps 741 mmHg 84%
    20:00 +7°C° 0 mm 4 mps 742 mmHg 87%
    21:00 +7°C° 0 mm 4 mps 742 mmHg 88%
    22:00 +7°C° 0 mm 4 mps 742 mmHg 88%
    23:00 +7°C° 0 mm 4 mps 742 mmHg 89%

    24 September, Monday

    Time Temperature Precipitation Wind Pressure Humidity
    00:00 +6°C° 0 mm 4 mps 742 mmHg 91%
    01:00 +7°C° 0 mm 3 mps 742 mmHg 92%
    02:00 +7°C° 0 mm 3 mps 742 mmHg 94%
    03:00 +5°C° 0 mm 3 mps 742 mmHg 94%
    04:00 +5°C° 0 mm 3 mps 741 mmHg 95%
    05:00 +5°C° 0 mm 3 mps 741 mmHg 95%
    06:00 +7°C° 0 mm 3 mps 741 mmHg 92%
    07:00 +7°C° 0 mm 3 mps 740 mmHg 88%
    08:00 +8°C° 0 mm 3 mps 740 mmHg 85%
    09:00 +8°C° 0 mm 4 mps 740 mmHg 80%
    10:00 +10°C° 0 mm 4 mps 739 mmHg 75%
    11:00 +12°C° 0 mm 5 mps 739 mmHg 70%
    12:00 +10°C° 0.9 mm 5 mps 738 mmHg 75%
    13:00 +9°C° 0.9 mm 6 mps 737 mmHg 80%
    14:00 +9°C° 0.9 mm 7 mps 736 mmHg 84%
    15:00 +8°C° 2.1 mm 7 mps 734 mmHg 86%
    16:00 +7°C° 2.1 mm 8 mps 733 mmHg 89%
    17:00 +6°C° 2.1 mm 8 mps 732 mmHg 91%
    18:00 +7°C° 1.3 mm 8 mps 731 mmHg 91%
    19:00 +8°C° 1.3 mm 7 mps 729 mmHg 92%
    20:00 +8°C° 1.3 mm 7 mps 728 mmHg 93%
    21:00 +9°C° 2.9 mm 6 mps 727 mmHg 94%
    22:00 +9°C° 2.9 mm 5 mps 725 mmHg 95%
    23:00 +9°C° 2.9 mm 5 mps 724 mmHg 96%

    25 September, Tuesday

    Time Temperature Precipitation Wind Pressure Humidity
    00:00 +9°C° 1.5 mm 5 mps 724 mmHg 95%
    01:00 +9°C° 1.5 mm 5 mps 723 mmHg 94%
    02:00 +9°C° 1.5 mm 5 mps 723 mmHg 94%
    03:00 +9°C° 1.6 mm 5 mps 723 mmHg 94%
    04:00 +8°C° 1.6 mm 5 mps 723 mmHg 94%
    05:00 +8°C° 1.6 mm 5 mps 723 mmHg 95%
    06:00 +8°C° 1.4 mm 6 mps 723 mmHg 94%
    07:00 +7°C° 1.4 mm 6 mps 724 mmHg 93%
    08:00 +6°C° 1.4 mm 7 mps 725 mmHg 93%
    09:00 +6°C° 1.4 mm 8 mps 726 mmHg 91%
    10:00 +5°C° 1.4 mm 10 mps 727 mmHg 90%
    11:00 +4°C° 1.4 mm 11 mps 728 mmHg 89%
    12:00 +4°C° 0.8 mm 11 mps 729 mmHg 88%
    13:00 +4°C° 0.8 mm 11 mps 730 mmHg 87%
    14:00 +3°C° 0.8 mm 12 mps 731 mmHg 86%
    15:00 +3°C° 0.7 mm 11 mps 732 mmHg 85%
    16:00 +3°C° 0.7 mm 11 mps 733 mmHg 83%
    17:00 +3°C° 0.7 mm 11 mps 734 mmHg 82%
    18:00 +3°C° 0.2 mm 10 mps 735 mmHg 80%
    19:00 +3°C° 0.2 mm 9 mps 735 mmHg 78%
    20:00 +2°C° 0.2 mm 8 mps 736 mmHg 76%
    21:00 +2°C° 0 mm 8 mps 736 mmHg 75%
    22:00 +2°C° 0 mm 8 mps 737 mmHg 75%
    23:00 +2°C° 0 mm 7 mps 737 mmHg 75%

    26 September, Wednesday

    Time Temperature Precipitation Wind Pressure Humidity
    00:00 +2°C° 0 mm 7 mps 738 mmHg 75%
    01:00 +2°C° 0 mm 7 mps 738 mmHg 75%
    02:00 0°C° 0 mm 7 mps 739 mmHg 75%
    03:00 0°C° 0 mm 7 mps 739 mmHg 75%
    04:00 +1°C° 0 mm 6 mps 740 mmHg 75%
    05:00 +1°C° 0 mm 6 mps 740 mmHg 75%
    06:00 0°C° 0 mm 7 mps 741 mmHg 73%
    07:00 +2°C° 0 mm 7 mps 741 mmHg 71%
    08:00 +1°C° 0 mm 8 mps 742 mmHg 70%
    09:00 +2°C° 0 mm 8 mps 742 mmHg 65%
    10:00 +4°C° 0 mm 8 mps 743 mmHg 61%
    11:00 +6°C° 0 mm 8 mps 743 mmHg 57%
    12:00 +6°C° 0 mm 8 mps 744 mmHg 57%
    13:00 +6°C° 0 mm 7 mps 745 mmHg 56%
    14:00 +6°C° 0 mm 7 mps 745 mmHg 55%
    15:00 +7°C° 0 mm 6 mps 746 mmHg 59%
    16:00 +6°C° 0 mm 5 mps 746 mmHg 62%
    17:00 +6°C° 0 mm 4 mps 747 mmHg 66%
    18:00 +5°C° 0 mm 4 mps 747 mmHg 68%
    19:00 +4°C° 0 mm 4 mps 748 mmHg 70%
    20:00 +4°C° 0 mm 3 mps 749 mmHg 72%
    21:00 +3°C° 0 mm 3 mps 749 mmHg 74%
    22:00 +2°C° 0 mm 3 mps 749 mmHg 76%
    23:00 +2°C° 0 mm 3 mps 750 mmHg 77%
    Show more